Location: Bartshausen
(51.8454°N, 9.8167°E)
Time: 12:06:40
(UTC+00:00)

Cosmos 2333 Rocket - Pass Details

Date: 08 November 2025
Orbit: 837 x 865 km, 70.8° (Epoch: 10 December)

Event Time Altitude Azimuth Distance (km) Brightness Sun altitude
Exits shadow 03:39:30 42° 336° (NNW) 1,219 2.8 -26.1°
Drops below altitude 10° 03:44:08 10° 24° (NNE) 2,509 5.0 -25.4°
Sets 03:46:44 0° 31° (NNE) 3,452 5.9 -25.0°
